Showing default

COSMOS 198, 3081

Orbit data source: Space-Track

COSMOS 198, 3081 is a payload satellite owned by TSKBM (CIS) in LEO that was launched on Wed, 27 Dec 1967 UTC via a TSIKLON-2A launch vehicle from the Tyuratam Missile And Space Complex (TTMTR). Payload-class satellites include a variety of spacecraft equipped with specific instruments for various scientific and technological missions. These include communications satellites like Starlink; space stations such as the ISS; scientific satellites like the Hubble; Earth observation satellites from companies like Planet Labs, Umbra, and HawkEye 360; GPS; miniature CubeSats for education and research; and military/defense satellites.

Loading next visibility...
Identifier
3081, 1967-127A
Orbit
LEO
Country
Flag of CISCIS
Related business
Manufacturer
TSKBM/KB1
Mission
Defense Sigint
Bus & Motor
US-A ROCH, Unknown motor
Mass
3,800 kg wet, 1,140 kg dry
Launch date (UTC)
1967-12-27 (58 years ago)
Launch vehicle
TSIKLON-2A
Launch site
Tyuratam Missile And Space Complex (TTMTR)
Object type
Payload
Rocket body
Debris
Shape & HBR
Cyl + Cone, 2.9 m
Radar Cross Section
6.586 m², Large (>1 m²)

Expand to show TLE details & history
Last TLE update: 1 day ago

TLE from 1 day ago
0 COSMOS 198
1 03081U 67127A   25257.47798125 -.00000062  00000-0  21137-4 0  9996
2 03081  65.1416 283.1111 0031173 207.5663 152.3752 13.93370482935167
Epoch: 2025-09-14T11:28Z
TLE epoch observation values (Epoch: 2025-09-14T11:28:17.579Z)
Latitude
-0°
Longitude
117.34144°
Altitude
938.957 km
Speed
7.373 km/s
True Right ascension
18h 52m 26s
True Declination
0° 00' 00"
Sunlit
Object was in daylight at epoch
Visualization orbit readout
Latitude
Unknown
Longitude
Unknown
Altitude
Unknown
Speed
Unknown
Apparent Right ascension
Unknown
Apparent Declination
Unknown
Sunlit
N/A
Visualization observer readout
Local Sidereal Time
12:32:41
Azimuth
Unknown
Elevation
Unknown
Doppler factor
Unknown
Orbital elements
Apogee altitude
938.166 km
Perigee altitude
892.693 km
Semi-major axis
7,293.566 km
Eccentricity
0.00312
Inclination
65.1416°
RAAN
283.1111°
Arg. of periapsis
207.5663°
True anomaly
152.54026°
Mean anomaly
152.3752°
Eccentric anomaly
152.45779°
Mean motion
3.48444 °/min
Orbital period
103.32 mins
BSTAR
0.000021137
Loading maneuver chart data...
Computing Atmospheric mass density...
Loading historical data...
Loading historical data...
Loading historical data...
Loading historical data...
Loading historical data...
Loading historical data...
Loading historical data...
Other satellites on launch #127 in the year 1967 (1967-12-27 UTC)

Documentation

Showing up to 5 results
|